This demonstration page uses our WeatherBlox Daily Observations layout. Learn more.

Left ArrowRight Arrow

39.29038, -76.61219

Hourly Observations for May 13, 2020

Temp ( °F °C ) Dew Point ( °F °C ) Humidity (%) Winds ( mph kmh ) Pressure ( in mb ) Visibility ( mi km ) Precip ( " mm )
12:54 am 00:54 undefined 50 10 28 -2.2 43 43 undefined N/A 30.22 1023 N/A N/A
1:54 am 01:54 undefined 49 9.4 29 -1.7 46 46 undefined N/A 30.23 1024 N/A N/A
2:54 am 02:54 undefined 49 9.4 28 -2.2 44 44 undefined N/A 30.23 1024 N/A N/A
3:54 am 03:54 undefined 49 9.4 27 -2.8 43 43 undefined N/A 30.24 1024 N/A N/A
4:54 am 04:54 undefined 47 8.3 28 -2.2 48 48 undefined N/A 30.26 1025 N/A N/A
5:54 am 05:54 undefined 47 8.3 28 -2.2 48 48 undefined N/A 30.28 1025 N/A N/A
6:54 am 06:54 undefined 49 9.4 32 undefined 52 52 undefined N/A 30.31 1026 N/A N/A
7:54 am 07:54 undefined 52 11.1 31 -0.6 45 45 undefined N/A 30.33 1027 N/A N/A
8:54 am 08:54 undefined 56 13.3 33 0.6 42 42 undefined N/A 30.34 1027 N/A N/A
9:54 am 09:54 undefined 58 14.4 36 2.2 44 44 undefined N/A 30.34 1027 N/A N/A
10:54 am 10:54 undefined 62 16.7 36 2.2 38 38 undefined N/A 30.32 1027 N/A N/A
11:54 am 11:54 undefined 65 18.3 30 -1.1 27 27 undefined N/A 30.31 1026 N/A N/A
12:54 pm 12:54 undefined 67 19.4 30 -1.1 25 25 undefined N/A 30.29 1026 N/A N/A
1:54 pm 13:54 undefined 69 20.6 32 undefined 25 25 undefined N/A 30.27 1025 N/A N/A
2:54 pm 14:54 undefined 69 20.6 33 0.6 26 26 undefined N/A 30.25 1025 N/A N/A
3:54 pm 15:54 undefined 70 21.1 31 -0.6 23 23 undefined N/A 30.24 1024 N/A N/A
4:54 pm 16:54 undefined 70 21.1 30 -1.1 23 23 undefined N/A 30.23 1024 N/A N/A
5:54 pm 17:54 undefined 68 20 28 -2.2 22 22 undefined N/A 30.24 1024 N/A N/A
6:54 pm 18:54 undefined 68 20 30 -1.1 24 24 undefined N/A 30.23 1024 N/A N/A
7:54 pm 19:54 undefined 64 17.8 38 3.3 38 38 undefined N/A 30.24 1024 N/A N/A
8:54 pm 20:54 undefined 61 16.1 40 4.4 46 46 undefined N/A 30.25 1025 N/A N/A
9:54 pm 21:54 undefined 59 15 41 5 51 51 undefined N/A 30.27 1025 N/A N/A
10:54 pm 22:54 undefined 58 14.4 42 5.6 56 56 undefined N/A 30.29 1026 N/A N/A
11:54 pm 23:54 undefined 56 13.3 43 6.1 62 62 undefined N/A 30.29 1026 N/A N/A

Powered by AerisWeather